Flag for U.S.A. Weather past 2 weeks in Richmond, Virginia, U.S.A.

Now
31 °F

Clear.


Feels Like: 25 °F
Forecast: 26 / 51 °F
Wind: 6 mph from North

Location: Richmond International Airport

Current Time: Mar 28, 2015 at 11:06:38 PM

Latest Report: Mar 28, 2015 at 9:54 PM


Visibility: 10 mi

Pressure: 30.26 "Hg

Humidity: 38%

Dew point: 8 °F

Location of RichmondLocation

Historic Weather in Richmond — Graph

°F

Richmond temperature yesterday

Maximum temperature yesterday: 65 °F (at 12:54 AM)
Minimum temperature yesterday: 40 °F (at 11:54 PM)
Average temperature yesterday: 45 °F

Past Weeks' High & Low Weather Summary

 TemperatureHumidityPressure
High77 °F (Mar 17, 1:54 PM)97% (Mar 20, 7:54 PM)30.42 "Hg (Mar 20, 7:54 PM)
Low31 °F (Mar 28, 9:54 PM)15% (Mar 18, 4:54 PM)29.66 "Hg (Mar 26, 7:54 PM)
Average50 °F59%30.07 "Hg
* Reported Mar 13 9:54 PM — Mar 28 9:54 PM, Richmond, Weather by CustomWeather, © 2015

Note: Actual official high and low records may vary slightly from our data, if they occured in-between our weather recording intervals... More about our weather records

Advertising

Richmond weather history for previous 24 hours

 ConditionsComfort  
Time TempWeatherWind HumidityBarometerVisibility
9:54 PM
Sat, Mar 28
31 °FClear.6 mph38%30.26 "Hg10 mi
8:54 PM32 °FClear.14 mph35%30.23 "Hg10 mi
7:54 PM34 °FPassing clouds.15 mph32%30.19 "Hg10 mi
6:54 PM37 °FPassing clouds.18 mph31%30.14 "Hg10 mi
5:54 PM40 °FPartly sunny.17 mph29%30.09 "Hg10 mi
4:54 PM44 °FPartly sunny.20 mph25%30.06 "Hg10 mi
3:54 PM40 °FPartly sunny.15 mph28%30.04 "Hg10 mi
2:54 PM41 °FBroken clouds.15 mph29%30.03 "Hg10 mi
1:54 PM41 °FBroken clouds.17 mph32%30.04 "Hg10 mi
12:54 PM39 °FMore clouds than sun.14 mph34%30.03 "Hg10 mi
11:54 AM38 °FBroken clouds.20 mph39%30.03 "Hg10 mi
10:54 AM36 °FBroken clouds.15 mph42%30.03 "Hg10 mi
9:54 AM35 °FScattered clouds.13 mph44%30.02 "Hg10 mi
8:54 AM36 °FScattered clouds.15 mph52%30.00 "Hg10 mi
7:54 AM34 °FPassing clouds.14 mph52%29.98 "Hg10 mi
6:54 AM35 °FPartly cloudy.14 mph50%29.94 "Hg10 mi
5:54 AM36 °FOvercast.12 mph54%29.91 "Hg10 mi
4:54 AM39 °FOvercast.20 mph57%29.88 "Hg10 mi
3:54 AM40 °FOvercast.14 mph60%29.85 "Hg10 mi
2:54 AM41 °FOvercast.16 mph55%29.84 "Hg10 mi
1:54 AM41 °FOvercast.12 mph62%29.85 "Hg10 mi
12:54 AM41 °FPassing clouds.9 mph74%29.83 "Hg10 mi
11:54 PM
Fri, Mar 27
40 °FPassing clouds.5 mph86%29.83 "Hg7 mi
Weather by CustomWeather, © 2015

See weather overviewHow to use our weather pages